LVWPG SCJO-SAEZ

Flight info

Callsign LVWPG
Flight time 2h 33m
Altitude 27000
Route PUKAN2D PUKAN DCT OSEKO UZ127 OSA UW73 IRASU DCT VALOS VALOS8V
Aircraft B350/L-SBDFGR/S

Departure

Time 2026-05-07 16:34
Airport Cañal Bajo Carlos Hott Siebert Airport (SCJO)

Arrival

Time 2026-05-07 19:07
Airport Ezeiza International Airport - Ministro Pistarini (SAEZ)
Time Latitude Longitude Altitude Speed Heading
2026-05-07 16:15 -40.60548 -73.06148 190 ft 0 kts 67°
2026-05-07 16:24 -40.60548 -73.06149 193 ft 0 kts 67°
2026-05-07 16:29 -40.60548 -73.06144 193 ft 3 kts 100°
2026-05-07 16:29 -40.60572 -73.06153 194 ft 6 kts 216°
2026-05-07 16:29 -40.60621 -73.06165 189 ft 9 kts 187°
2026-05-07 16:30 -40.60699 -73.06179 186 ft 13 kts 188°
2026-05-07 16:30 -40.60798 -73.06195 185 ft 15 kts 187°
2026-05-07 16:30 -40.60906 -73.06206 184 ft 16 kts 163°
2026-05-07 16:30 -40.61013 -73.06136 185 ft 17 kts 154°
2026-05-07 16:31 -40.61122 -73.06072 185 ft 18 kts 157°
2026-05-07 16:31 -40.61240 -73.06010 186 ft 18 kts 159°
2026-05-07 16:31 -40.61350 -73.05946 191 ft 17 kts 158°
2026-05-07 16:31 -40.61460 -73.05885 191 ft 18 kts 152°
2026-05-07 16:32 -40.61570 -73.05816 199 ft 17 kts 155°
2026-05-07 16:32 -40.61683 -73.05747 191 ft 18 kts 156°
2026-05-07 16:32 -40.61798 -73.05686 196 ft 14 kts 159°
2026-05-07 16:32 -40.61803 -73.05661 193 ft 5 kts 16°
2026-05-07 16:33 -40.61731 -73.05703 192 ft 28 kts 334°
2026-05-07 16:33 -40.61320 -73.05952 195 ft 101 kts 337°
2026-05-07 16:33 -40.60530 -73.06428 312 ft 139 kts 333°
2026-05-07 16:33 -40.59563 -73.07034 622 ft 163 kts 329°
2026-05-07 16:34 -40.58561 -73.07593 1461 ft 150 kts 333°
2026-05-07 16:34 -40.57609 -73.08118 2157 ft 153 kts 332°
2026-05-07 16:34 -40.56579 -73.08667 2687 ft 164 kts 345°
2026-05-07 16:34 -40.55467 -73.08393 3294 ft 172 kts 34°
2026-05-07 16:35 -40.54543 -73.07355 3817 ft 177 kts 36°
2026-05-07 16:35 -40.53819 -73.06825 4203 ft 177 kts 18°
2026-05-07 16:35 -40.52239 -73.06258 4934 ft 179 kts 12°
2026-05-07 16:35 -40.51026 -73.05847 5473 ft 181 kts 12°
2026-05-07 16:36 -40.50201 -73.05563 5838 ft 182 kts 12°
2026-05-07 16:36 -40.48972 -73.05139 6380 ft 184 kts 12°
2026-05-07 16:36 -40.47732 -73.04711 6904 ft 185 kts 12°
2026-05-07 16:36 -40.46469 -73.04276 7355 ft 190 kts 12°
2026-05-07 16:37 -40.45175 -73.03829 7800 ft 195 kts 11°
2026-05-07 16:37 -40.43844 -73.03370 8243 ft 200 kts 11°
2026-05-07 16:37 -40.42485 -73.02900 8713 ft 204 kts 10°
2026-05-07 16:37 -40.41092 -73.02421 9173 ft 209 kts
2026-05-07 16:38 -40.39668 -73.01929 9655 ft 214 kts
2026-05-07 16:38 -40.38210 -73.01428 10125 ft 219 kts
2026-05-07 16:38 -40.36724 -73.00916 10577 ft 223 kts
2026-05-07 16:38 -40.35283 -73.00411 11297 ft 207 kts
2026-05-07 16:39 -40.33891 -72.99938 11846 ft 209 kts
2026-05-07 16:39 -40.32465 -72.99453 12312 ft 214 kts
2026-05-07 16:39 -40.31016 -72.98953 12820 ft 217 kts
2026-05-07 16:39 -40.29544 -72.98446 13327 ft 221 kts
2026-05-07 16:40 -40.28044 -72.97932 13796 ft 225 kts
2026-05-07 16:40 -40.26515 -72.97406 14278 ft 229 kts
2026-05-07 16:40 -40.24971 -72.96875 14728 ft 231 kts
2026-05-07 16:40 -40.23412 -72.96352 15182 ft 232 kts
2026-05-07 16:41 -40.21838 -72.95825 15633 ft 235 kts
2026-05-07 16:41 -40.20249 -72.95292 16083 ft 236 kts
2026-05-07 16:41 -40.18649 -72.94752 16546 ft 239 kts
2026-05-07 16:41 -40.17029 -72.94208 17005 ft 241 kts
2026-05-07 16:42 -40.15393 -72.93659 17441 ft 245 kts
2026-05-07 16:42 -40.13737 -72.93100 17876 ft 248 kts
2026-05-07 16:42 -40.12062 -72.92540 18376 ft 250 kts
2026-05-07 16:42 -40.10370 -72.91977 18831 ft 252 kts
2026-05-07 16:43 -40.08661 -72.91404 19282 ft 255 kts
2026-05-07 16:43 -40.06936 -72.90824 19734 ft 256 kts
2026-05-07 16:43 -40.05196 -72.90241 20179 ft 260 kts
2026-05-07 16:43 -40.03455 -72.89655 20737 ft 253 kts
2026-05-07 16:44 -40.01769 -72.89089 21306 ft 250 kts
2026-05-07 16:44 -40.00071 -72.88529 21747 ft 253 kts
2026-05-07 16:44 -39.98364 -72.87964 22193 ft 254 kts
2026-05-07 16:44 -39.96644 -72.87381 22648 ft 257 kts
2026-05-07 16:45 -39.94908 -72.86799 23090 ft 258 kts
2026-05-07 16:45 -39.93160 -72.86220 23514 ft 260 kts
2026-05-07 16:45 -39.91423 -72.85640 23921 ft 262 kts
2026-05-07 16:45 -39.89650 -72.85049 24286 ft 265 kts
2026-05-07 16:46 -39.87854 -72.84457 24635 ft 267 kts
2026-05-07 16:46 -39.86026 -72.83846 25004 ft 268 kts
2026-05-07 16:46 -39.84235 -72.83248 25326 ft 270 kts
2026-05-07 16:46 -39.82403 -72.82642 25661 ft 273 kts
2026-05-07 16:47 -39.80530 -72.82018 26009 ft 275 kts
2026-05-07 16:47 -39.78670 -72.81401 26331 ft 277 kts
2026-05-07 16:47 -39.76792 -72.80778 26676 ft 279 kts
2026-05-07 16:47 -39.74902 -72.80139 27004 ft 283 kts
2026-05-07 16:48 -39.73076 -72.79085 27324 ft 293 kts 30°
2026-05-07 16:48 -39.71459 -72.77421 27348 ft 309 kts 51°
2026-05-07 16:48 -39.70130 -72.75140 27348 ft 316 kts 70°
2026-05-07 16:48 -39.69278 -72.72514 27352 ft 315 kts 88°
2026-05-07 16:49 -39.68925 -72.69735 27351 ft 311 kts 101°
2026-05-07 16:49 -39.68708 -72.66924 27349 ft 326 kts 95°
2026-05-07 16:49 -39.68154 -72.63971 27350 ft 346 kts 83°
2026-05-07 16:49 -39.67357 -72.60972 27346 ft 355 kts 81°
2026-05-07 16:50 -39.66555 -72.57930 27347 ft 357 kts 84°
2026-05-07 16:50 -39.65879 -72.54822 27350 ft 359 kts 86°
2026-05-07 16:50 -39.65222 -72.51675 27343 ft 363 kts 85°
2026-05-07 16:50 -39.64496 -72.48513 27345 ft 368 kts 84°
2026-05-07 16:51 -39.63742 -72.45335 27350 ft 369 kts 84°
2026-05-07 16:51 -39.63011 -72.42136 27346 ft 370 kts 84°
2026-05-07 16:51 -39.62292 -72.38930 27343 ft 371 kts 84°
2026-05-07 16:51 -39.61559 -72.35716 27336 ft 372 kts 84°
2026-05-07 16:52 -39.60816 -72.32507 27336 ft 372 kts 84°
2026-05-07 16:52 -39.60078 -72.29299 27339 ft 371 kts 84°
2026-05-07 16:52 -39.59343 -72.26085 27337 ft 371 kts 84°
2026-05-07 16:52 -39.58607 -72.22877 27332 ft 372 kts 84°
2026-05-07 16:53 -39.57865 -72.19668 27330 ft 371 kts 84°
2026-05-07 16:53 -39.57125 -72.16466 27330 ft 370 kts 84°
2026-05-07 16:53 -39.56389 -72.13275 27329 ft 370 kts 84°
2026-05-07 16:53 -39.55651 -72.10085 27318 ft 368 kts 84°
2026-05-07 16:54 -39.54915 -72.06910 27319 ft 367 kts 84°
2026-05-07 16:54 -39.54182 -72.03744 27318 ft 367 kts 84°
2026-05-07 16:54 -39.53446 -72.00573 27316 ft 368 kts 84°
2026-05-07 16:54 -39.52707 -71.97393 27308 ft 369 kts 84°
2026-05-07 16:55 -39.51962 -71.94207 27303 ft 370 kts 84°
2026-05-07 16:55 -39.51218 -71.91019 27301 ft 370 kts 84°
2026-05-07 16:55 -39.50485 -71.87876 27305 ft 370 kts 83°
2026-05-07 16:55 -39.49729 -71.84638 27307 ft 369 kts 83°
2026-05-07 16:56 -39.48982 -71.81456 27284 ft 369 kts 83°
2026-05-07 16:56 -39.48236 -71.78289 27276 ft 367 kts 83°
2026-05-07 16:56 -39.46756 -71.71989 27278 ft 365 kts 83°
2026-05-07 16:57 -39.46021 -71.68860 27249 ft 363 kts 83°
2026-05-07 16:57 -39.45285 -71.65738 27245 ft 362 kts 83°
2026-05-07 16:57 -39.44551 -71.62632 27251 ft 361 kts 83°
2026-05-07 16:57 -39.43816 -71.59524 27248 ft 362 kts 83°
2026-05-07 16:58 -39.43078 -71.56409 27256 ft 362 kts 83°
2026-05-07 16:58 -39.42340 -71.53290 27228 ft 364 kts 83°
2026-05-07 16:58 -39.41597 -71.50154 27225 ft 365 kts 84°
2026-05-07 16:58 -39.40849 -71.47014 27227 ft 366 kts 83°
2026-05-07 16:59 -39.40096 -71.43876 27222 ft 365 kts 84°
2026-05-07 16:59 -39.39351 -71.40734 27219 ft 366 kts 83°
2026-05-07 16:59 -39.38603 -71.37596 27223 ft 366 kts 84°
2026-05-07 16:59 -39.37857 -71.34465 27227 ft 366 kts 83°
2026-05-07 17:00 -39.37101 -71.31327 27230 ft 366 kts 83°
2026-05-07 17:00 -39.36344 -71.28193 27202 ft 365 kts 83°
2026-05-07 17:00 -39.35598 -71.25048 27204 ft 367 kts 84°
2026-05-07 17:00 -39.34845 -71.21900 27191 ft 367 kts 84°
2026-05-07 17:01 -39.34081 -71.18754 27203 ft 367 kts 83°
2026-05-07 17:01 -39.33323 -71.15606 27192 ft 367 kts 83°
2026-05-07 17:01 -39.32567 -71.12458 27172 ft 368 kts 83°
2026-05-07 17:01 -39.31803 -71.09299 27164 ft 368 kts 83°
2026-05-07 17:02 -39.31037 -71.06143 27163 ft 369 kts 83°
2026-05-07 17:02 -39.30273 -71.02986 27166 ft 368 kts 83°
2026-05-07 17:02 -39.29510 -70.99841 27136 ft 368 kts 83°
2026-05-07 17:02 -39.28744 -70.96691 27135 ft 367 kts 83°
2026-05-07 17:03 -39.27981 -70.93553 27133 ft 366 kts 83°
2026-05-07 17:03 -39.27218 -70.90421 27137 ft 366 kts 83°
2026-05-07 17:03 -39.26456 -70.87293 27132 ft 364 kts 83°
2026-05-07 17:03 -39.25701 -70.84184 27119 ft 364 kts 83°
2026-05-07 17:04 -39.24934 -70.81069 27121 ft 364 kts 83°
2026-05-07 17:04 -39.24170 -70.77964 27121 ft 363 kts 83°
2026-05-07 17:04 -39.23412 -70.74856 27122 ft 363 kts 83°
2026-05-07 17:04 -39.22653 -70.71751 27099 ft 363 kts 83°
2026-05-07 17:05 -39.21890 -70.68658 27106 ft 363 kts 83°
2026-05-07 17:05 -39.21126 -70.65555 27103 ft 363 kts 83°
2026-05-07 17:05 -39.20362 -70.62444 27100 ft 363 kts 83°
2026-05-07 17:05 -39.19596 -70.59342 27080 ft 364 kts 83°
2026-05-07 17:06 -39.18826 -70.56232 27077 ft 364 kts 83°
2026-05-07 17:06 -39.18058 -70.53131 27082 ft 362 kts 83°
2026-05-07 17:06 -39.17294 -70.50046 27083 ft 360 kts 83°
2026-05-07 17:06 -39.16534 -70.46978 27065 ft 359 kts 83°
2026-05-07 17:07 -39.15774 -70.43917 27062 ft 358 kts 83°
2026-05-07 17:07 -39.15015 -70.40864 27060 ft 357 kts 83°
2026-05-07 17:07 -39.14256 -70.37819 27059 ft 356 kts 83°
2026-05-07 17:07 -39.13501 -70.34791 27060 ft 355 kts 83°
2026-05-07 17:08 -39.12747 -70.31758 27038 ft 355 kts 83°
2026-05-07 17:08 -39.11989 -70.28728 27037 ft 356 kts 83°
2026-05-07 17:08 -39.11227 -70.25695 27036 ft 356 kts 83°
2026-05-07 17:08 -39.10470 -70.22663 27035 ft 356 kts 83°
2026-05-07 17:09 -39.09711 -70.19633 27072 ft 356 kts 83°
2026-05-07 17:09 -39.08946 -70.16588 27036 ft 358 kts 83°
2026-05-07 17:09 -39.08178 -70.13542 27027 ft 358 kts 83°
2026-05-07 17:09 -39.07412 -70.10497 27029 ft 358 kts 83°
2026-05-07 17:10 -39.06645 -70.07452 27034 ft 358 kts 83°
2026-05-07 17:10 -39.05876 -70.04407 27026 ft 358 kts 83°
2026-05-07 17:10 -39.05106 -70.01361 27026 ft 358 kts 83°
2026-05-07 17:10 -39.04345 -69.98353 27022 ft 358 kts 83°
2026-05-07 17:11 -39.03563 -69.95266 27026 ft 358 kts 83°
2026-05-07 17:11 -39.02802 -69.92263 27023 ft 359 kts 83°
2026-05-07 17:11 -39.02027 -69.89211 27021 ft 359 kts 83°
2026-05-07 17:11 -39.01251 -69.86165 27060 ft 358 kts 83°
2026-05-07 17:12 -39.00476 -69.83117 27025 ft 359 kts 83°
2026-05-07 17:12 -38.99698 -69.80067 27026 ft 358 kts 83°
2026-05-07 17:12 -38.98922 -69.77028 27025 ft 358 kts 83°
2026-05-07 17:12 -38.98145 -69.73989 27026 ft 358 kts 83°
2026-05-07 17:13 -38.97358 -69.70913 27025 ft 357 kts 83°
2026-05-07 17:13 -38.96581 -69.67880 27025 ft 357 kts 83°
2026-05-07 17:13 -38.95805 -69.64851 27023 ft 357 kts 83°
2026-05-07 17:13 -38.95026 -69.61821 27023 ft 357 kts 83°
2026-05-07 17:14 -38.94246 -69.58785 27022 ft 357 kts 83°
2026-05-07 17:14 -38.93466 -69.55756 27022 ft 358 kts 83°
2026-05-07 17:14 -38.92684 -69.52723 27065 ft 358 kts 83°
2026-05-07 17:14 -38.91904 -69.49681 27022 ft 359 kts 83°
2026-05-07 17:15 -38.91124 -69.46678 27024 ft 359 kts 83°
2026-05-07 17:15 -38.90334 -69.43639 27022 ft 359 kts 83°
2026-05-07 17:15 -38.89539 -69.40564 27022 ft 358 kts 83°
2026-05-07 17:15 -38.88764 -69.37569 27025 ft 358 kts 83°
2026-05-07 17:16 -38.87978 -69.34542 27025 ft 358 kts 83°
2026-05-07 17:16 -38.87188 -69.31513 27026 ft 358 kts 83°
2026-05-07 17:16 -38.86402 -69.28491 27027 ft 357 kts 83°
2026-05-07 17:16 -38.85616 -69.25467 27029 ft 357 kts 83°
2026-05-07 17:17 -38.85082 -69.23423 27029 ft 357 kts 83°
2026-05-07 17:17 -38.84036 -69.19420 27029 ft 357 kts 83°
2026-05-07 17:17 -38.83246 -69.16387 27023 ft 359 kts 83°
2026-05-07 17:17 -38.82708 -69.14334 27023 ft 360 kts 83°
2026-05-07 17:18 -38.81908 -69.11295 27022 ft 360 kts 83°
2026-05-07 17:18 -38.81111 -69.08259 27023 ft 360 kts 83°
2026-05-07 17:18 -38.80314 -69.05220 27022 ft 360 kts 83°
2026-05-07 17:18 -38.79516 -69.02184 27022 ft 360 kts 83°
2026-05-07 17:19 -38.78715 -68.99144 27026 ft 360 kts 83°
2026-05-07 17:19 -38.77913 -68.96104 27026 ft 360 kts 83°
2026-05-07 17:19 -38.77112 -68.93071 27027 ft 360 kts 83°
2026-05-07 17:19 -38.76310 -68.90033 27026 ft 360 kts 83°
2026-05-07 17:20 -38.75506 -68.86994 27017 ft 360 kts 83°
2026-05-07 17:20 -38.74699 -68.83950 27027 ft 362 kts 83°
2026-05-07 17:20 -38.73890 -68.80903 27028 ft 361 kts 83°
2026-05-07 17:20 -38.73082 -68.77861 27027 ft 361 kts 83°
2026-05-07 17:21 -38.72284 -68.74858 27028 ft 361 kts 83°
2026-05-07 17:21 -38.71463 -68.71774 27027 ft 361 kts 83°
2026-05-07 17:21 -38.70653 -68.68735 27027 ft 361 kts 83°
2026-05-07 17:21 -38.69841 -68.65697 27027 ft 361 kts 83°
2026-05-07 17:22 -38.69030 -68.62658 27024 ft 361 kts 83°
2026-05-07 17:22 -38.68217 -68.59620 27012 ft 361 kts 83°
2026-05-07 17:22 -38.67404 -68.56584 27009 ft 360 kts 83°
2026-05-07 17:22 -38.66601 -68.53591 27009 ft 360 kts 83°
2026-05-07 17:23 -38.65787 -68.50557 27021 ft 361 kts 84°
2026-05-07 17:23 -38.64973 -68.47523 27022 ft 361 kts 84°
2026-05-07 17:23 -38.64154 -68.44486 27018 ft 361 kts 84°
2026-05-07 17:23 -38.63337 -68.41451 27015 ft 361 kts 84°
2026-05-07 17:24 -38.62519 -68.38420 27015 ft 361 kts 84°
2026-05-07 17:24 -38.61699 -68.35383 27014 ft 361 kts 84°
2026-05-07 17:24 -38.60879 -68.32351 27015 ft 361 kts 84°
2026-05-07 17:24 -38.60059 -68.29318 27018 ft 361 kts 84°
2026-05-07 17:25 -38.59234 -68.26280 27015 ft 362 kts 83°
2026-05-07 17:25 -38.58412 -68.23246 27006 ft 362 kts 83°
2026-05-07 17:25 -38.57586 -68.20208 27010 ft 362 kts 83°
2026-05-07 17:25 -38.56761 -68.17173 26990 ft 361 kts 83°
2026-05-07 17:26 -38.55948 -68.14151 26994 ft 359 kts 83°
2026-05-07 17:26 -38.55114 -68.11142 26994 ft 360 kts 82°
2026-05-07 17:26 -38.54282 -68.08132 26995 ft 359 kts 83°
2026-05-07 17:26 -38.53470 -68.05120 26992 ft 358 kts 83°
2026-05-07 17:27 -38.52655 -68.02113 26990 ft 359 kts 82°
2026-05-07 17:27 -38.51829 -67.99110 26989 ft 359 kts 82°
2026-05-07 17:27 -38.51003 -67.96108 26989 ft 358 kts 82°
2026-05-07 17:27 -38.50179 -67.93105 26985 ft 358 kts 82°
2026-05-07 17:28 -38.49321 -67.90108 26984 ft 363 kts 77°
2026-05-07 17:28 -38.48093 -67.87236 26986 ft 373 kts 66°
2026-05-07 17:28 -38.46653 -67.84463 26985 ft 375 kts 64°
2026-05-07 17:28 -38.45211 -67.81694 26986 ft 374 kts 66°
2026-05-07 17:29 -38.43829 -67.78890 26978 ft 373 kts 67°
2026-05-07 17:29 -38.42453 -67.76078 26977 ft 374 kts 66°
2026-05-07 17:29 -38.41049 -67.73286 26976 ft 374 kts 66°
2026-05-07 17:29 -38.39640 -67.70500 26976 ft 374 kts 66°
2026-05-07 17:30 -38.38244 -67.67712 26974 ft 373 kts 66°
2026-05-07 17:30 -38.36849 -67.64920 26971 ft 373 kts 66°
2026-05-07 17:30 -38.35450 -67.62136 26972 ft 373 kts 66°
2026-05-07 17:30 -38.34049 -67.59353 26971 ft 373 kts 66°
2026-05-07 17:31 -38.32646 -67.56564 26970 ft 373 kts 66°
2026-05-07 17:31 -38.31245 -67.53781 26994 ft 373 kts 66°
2026-05-07 17:31 -38.29843 -67.50998 26980 ft 373 kts 66°
2026-05-07 17:31 -38.28443 -67.48224 26980 ft 372 kts 66°
2026-05-07 17:32 -38.27045 -67.45453 26972 ft 372 kts 66°
2026-05-07 17:32 -38.25648 -67.42689 26973 ft 371 kts 66°
2026-05-07 17:32 -38.24252 -67.39926 26974 ft 371 kts 66°
2026-05-07 17:32 -38.22855 -67.37166 26974 ft 371 kts 66°
2026-05-07 17:33 -38.21456 -67.34408 26964 ft 371 kts 66°
2026-05-07 17:33 -38.20058 -67.31650 26964 ft 371 kts 66°
2026-05-07 17:33 -38.18659 -67.28889 26964 ft 371 kts 66°
2026-05-07 17:33 -38.17260 -67.26132 26955 ft 371 kts 66°
2026-05-07 17:34 -38.15859 -67.23378 26953 ft 371 kts 66°
2026-05-07 17:34 -38.14457 -67.20622 26975 ft 372 kts 66°
2026-05-07 17:34 -38.13053 -67.17859 26968 ft 372 kts 66°
2026-05-07 17:34 -38.11648 -67.15106 26959 ft 372 kts 66°
2026-05-07 17:35 -38.10242 -67.12351 26961 ft 371 kts 66°
2026-05-07 17:35 -38.08838 -67.09598 26962 ft 371 kts 66°
2026-05-07 17:35 -38.07433 -67.06847 26962 ft 371 kts 66°
2026-05-07 17:35 -38.06029 -67.04100 26961 ft 371 kts 66°
2026-05-07 17:36 -38.04625 -67.01357 26954 ft 371 kts 66°
2026-05-07 17:36 -38.03222 -66.98618 26955 ft 371 kts 66°
2026-05-07 17:36 -38.01818 -66.95877 26954 ft 370 kts 66°
2026-05-07 17:36 -38.00413 -66.93139 26955 ft 370 kts 66°
2026-05-07 17:37 -37.99008 -66.90400 26955 ft 371 kts 66°
2026-05-07 17:37 -37.97600 -66.87660 26945 ft 371 kts 66°
2026-05-07 17:37 -37.96189 -66.84919 26945 ft 371 kts 66°
2026-05-07 17:37 -37.94781 -66.82183 26946 ft 371 kts 66°
2026-05-07 17:38 -37.93373 -66.79449 26946 ft 370 kts 66°
2026-05-07 17:38 -37.91968 -66.76720 26947 ft 370 kts 66°
2026-05-07 17:38 -37.90559 -66.73991 26943 ft 370 kts 66°
2026-05-07 17:38 -37.89151 -66.71266 26944 ft 370 kts 66°
2026-05-07 17:39 -37.87742 -66.68539 26940 ft 370 kts 66°
2026-05-07 17:39 -37.86334 -66.65815 26940 ft 370 kts 66°
2026-05-07 17:39 -37.84927 -66.63100 26920 ft 369 kts 66°
2026-05-07 17:39 -37.83518 -66.60380 26920 ft 369 kts 66°
2026-05-07 17:40 -37.82112 -66.57666 26919 ft 369 kts 66°
2026-05-07 17:40 -37.80701 -66.54948 26937 ft 370 kts 66°
2026-05-07 17:40 -37.79290 -66.52231 26935 ft 370 kts 66°
2026-05-07 17:40 -37.77876 -66.49511 26929 ft 370 kts 66°
2026-05-07 17:41 -37.76464 -66.46796 26928 ft 370 kts 66°
2026-05-07 17:41 -37.75051 -66.44084 26935 ft 369 kts 66°
2026-05-07 17:41 -37.73641 -66.41377 26929 ft 369 kts 66°
2026-05-07 17:41 -37.72226 -66.38664 26930 ft 370 kts 66°
2026-05-07 17:42 -37.70810 -66.35950 26923 ft 370 kts 66°
2026-05-07 17:42 -37.69394 -66.33241 26926 ft 370 kts 66°
2026-05-07 17:42 -37.67979 -66.30534 26920 ft 370 kts 66°
2026-05-07 17:42 -37.66563 -66.27827 26919 ft 369 kts 66°
2026-05-07 17:43 -37.65146 -66.25122 26926 ft 369 kts 66°
2026-05-07 17:43 -37.63724 -66.22411 26917 ft 371 kts 66°
2026-05-07 17:43 -37.62304 -66.19699 26918 ft 371 kts 66°
2026-05-07 17:43 -37.60882 -66.16991 26917 ft 371 kts 65°
2026-05-07 17:44 -37.59459 -66.14282 26919 ft 371 kts 65°
2026-05-07 17:44 -37.58034 -66.11574 26917 ft 371 kts 65°
2026-05-07 17:44 -37.56609 -66.08864 26916 ft 371 kts 65°
2026-05-07 17:44 -37.55183 -66.06157 26916 ft 371 kts 65°
2026-05-07 17:45 -37.53758 -66.03452 26916 ft 371 kts 65°
2026-05-07 17:45 -37.52331 -66.00750 26916 ft 371 kts 65°
2026-05-07 17:45 -37.50904 -65.98044 26905 ft 371 kts 65°
2026-05-07 17:45 -37.49474 -65.95339 26905 ft 371 kts 65°
2026-05-07 17:46 -37.48045 -65.92640 26929 ft 371 kts 65°
2026-05-07 17:46 -37.46614 -65.89942 26911 ft 371 kts 65°
2026-05-07 17:46 -37.45189 -65.87239 26911 ft 370 kts 65°
2026-05-07 17:46 -37.43757 -65.84538 26904 ft 370 kts 65°
2026-05-07 17:47 -37.42327 -65.81847 26904 ft 370 kts 65°
2026-05-07 17:47 -37.40897 -65.79154 26904 ft 370 kts 65°
2026-05-07 17:47 -37.39469 -65.76464 26906 ft 370 kts 65°
2026-05-07 17:47 -37.38038 -65.73774 26901 ft 370 kts 65°
2026-05-07 17:48 -37.36607 -65.71085 26904 ft 370 kts 65°
2026-05-07 17:48 -37.35174 -65.68396 26904 ft 370 kts 65°
2026-05-07 17:48 -37.33741 -65.65708 26900 ft 370 kts 65°
2026-05-07 17:48 -37.32308 -65.63020 26900 ft 370 kts 65°
2026-05-07 17:49 -37.30873 -65.60335 26896 ft 371 kts 64°
2026-05-07 17:49 -37.29436 -65.57650 26894 ft 370 kts 65°
2026-05-07 17:49 -37.28003 -65.54964 26894 ft 370 kts 65°
2026-05-07 17:49 -37.26570 -65.52286 26895 ft 369 kts 64°
2026-05-07 17:50 -37.25136 -65.49610 26896 ft 369 kts 65°
2026-05-07 17:50 -37.23704 -65.46941 26887 ft 369 kts 64°
2026-05-07 17:50 -37.22275 -65.44277 26887 ft 368 kts 65°
2026-05-07 17:50 -37.20844 -65.41611 26888 ft 368 kts 65°
2026-05-07 17:51 -37.19431 -65.38982 26887 ft 368 kts 64°
2026-05-07 17:51 -37.17981 -65.36287 26886 ft 368 kts 64°
2026-05-07 17:51 -37.16549 -65.33625 26884 ft 368 kts 64°
2026-05-07 17:51 -37.15135 -65.31001 26883 ft 368 kts 64°
2026-05-07 17:52 -37.13704 -65.28345 26884 ft 368 kts 63°
2026-05-07 17:52 -37.12255 -65.25659 26883 ft 366 kts 63°
2026-05-07 17:52 -37.10848 -65.23055 26864 ft 366 kts 64°
2026-05-07 17:52 -37.09420 -65.20419 26864 ft 365 kts 64°
2026-05-07 17:53 -37.07992 -65.17786 26863 ft 365 kts 64°
2026-05-07 17:53 -37.06573 -65.15153 26862 ft 365 kts 64°
2026-05-07 17:53 -37.05151 -65.12521 26861 ft 365 kts 64°
2026-05-07 17:53 -37.03728 -65.09898 26858 ft 364 kts 64°
2026-05-07 17:54 -37.02303 -65.07274 26860 ft 364 kts 64°
2026-05-07 17:54 -37.00880 -65.04652 26859 ft 364 kts 64°
2026-05-07 17:54 -36.99458 -65.02032 26859 ft 364 kts 64°
2026-05-07 17:54 -36.98034 -64.99416 26859 ft 364 kts 64°
2026-05-07 17:55 -36.96608 -64.96794 26875 ft 364 kts 63°
2026-05-07 17:55 -36.95184 -64.94180 26869 ft 363 kts 63°
2026-05-07 17:55 -36.93763 -64.91575 26870 ft 363 kts 63°
2026-05-07 17:55 -36.92345 -64.88974 26869 ft 362 kts 63°
2026-05-07 17:56 -36.90926 -64.86374 26866 ft 361 kts 63°
2026-05-07 17:56 -36.89509 -64.83782 26866 ft 361 kts 63°
2026-05-07 17:56 -36.88094 -64.81193 26866 ft 361 kts 63°
2026-05-07 17:56 -36.86680 -64.78609 26866 ft 361 kts 63°
2026-05-07 17:57 -36.85265 -64.76023 26866 ft 361 kts 63°
2026-05-07 17:57 -36.84307 -64.74276 26866 ft 361 kts 63°
2026-05-07 17:57 -36.82429 -64.70851 26858 ft 361 kts 63°
2026-05-07 17:57 -36.81011 -64.68266 26856 ft 361 kts 63°
2026-05-07 17:58 -36.79591 -64.65682 26857 ft 361 kts 63°
2026-05-07 17:58 -36.78173 -64.63101 26855 ft 361 kts 63°
2026-05-07 17:58 -36.77214 -64.61357 26852 ft 361 kts 63°
2026-05-07 17:58 -36.75793 -64.58775 26849 ft 361 kts 63°
2026-05-07 17:59 -36.74371 -64.56193 26845 ft 361 kts 63°
2026-05-07 17:59 -36.72950 -64.53616 26831 ft 361 kts 63°
2026-05-07 17:59 -36.71065 -64.50201 26827 ft 361 kts 63°
2026-05-07 17:59 -36.70122 -64.48491 26824 ft 361 kts 63°
2026-05-07 18:00 -36.68701 -64.45918 26814 ft 361 kts 63°
2026-05-07 18:00 -36.67264 -64.43314 26813 ft 360 kts 63°
2026-05-07 18:00 -36.65857 -64.40781 26810 ft 360 kts 63°
2026-05-07 18:00 -36.64430 -64.38214 26807 ft 360 kts 63°
2026-05-07 18:01 -36.63010 -64.35647 26824 ft 360 kts 61°
2026-05-07 18:01 -36.61596 -64.33084 26820 ft 359 kts 62°
2026-05-07 18:01 -36.60178 -64.30527 26821 ft 359 kts 62°
2026-05-07 18:01 -36.58755 -64.27976 26821 ft 358 kts 62°
2026-05-07 18:02 -36.56274 -64.22690 26819 ft 353 kts 68°
2026-05-07 18:02 -36.55075 -64.20024 26843 ft 353 kts 68°
2026-05-07 18:02 -36.53855 -64.17373 26843 ft 353 kts 67°
2026-05-07 18:03 -36.52638 -64.14725 26843 ft 353 kts 68°
2026-05-07 18:03 -36.51428 -64.12074 26843 ft 353 kts 68°
2026-05-07 18:03 -36.50218 -64.09426 26840 ft 353 kts 68°
2026-05-07 18:03 -36.49004 -64.06777 26840 ft 353 kts 68°
2026-05-07 18:04 -36.47789 -64.04129 26848 ft 353 kts 66°
2026-05-07 18:04 -36.46577 -64.01489 26841 ft 352 kts 66°
2026-05-07 18:04 -36.45362 -63.98860 26843 ft 351 kts 66°
2026-05-07 18:04 -36.44160 -63.96231 26838 ft 350 kts 66°
2026-05-07 18:05 -36.42959 -63.93604 26838 ft 350 kts 66°
2026-05-07 18:05 -36.41748 -63.90981 26838 ft 349 kts 66°
2026-05-07 18:05 -36.40542 -63.88368 26837 ft 349 kts 66°
2026-05-07 18:05 -36.39336 -63.85752 26831 ft 349 kts 66°
2026-05-07 18:06 -36.38132 -63.83140 26829 ft 349 kts 66°
2026-05-07 18:06 -36.36928 -63.80532 26829 ft 349 kts 66°
2026-05-07 18:06 -36.35720 -63.77920 26828 ft 348 kts 66°
2026-05-07 18:06 -36.34516 -63.75316 26828 ft 348 kts 66°
2026-05-07 18:07 -36.33309 -63.72708 26826 ft 348 kts 64°
2026-05-07 18:07 -36.32101 -63.70108 26827 ft 347 kts 64°
2026-05-07 18:07 -36.30899 -63.67514 26819 ft 347 kts 64°
2026-05-07 18:07 -36.29702 -63.64922 26819 ft 346 kts 64°
2026-05-07 18:08 -36.28501 -63.62336 26818 ft 346 kts 64°
2026-05-07 18:08 -36.27298 -63.59754 26812 ft 346 kts 64°
2026-05-07 18:08 -36.26099 -63.57173 26812 ft 346 kts 64°
2026-05-07 18:08 -36.24898 -63.54590 26812 ft 346 kts 64°
2026-05-07 18:09 -36.23696 -63.52012 26810 ft 345 kts 64°
2026-05-07 18:09 -36.22495 -63.49435 26807 ft 345 kts 64°
2026-05-07 18:09 -36.21294 -63.46861 26807 ft 345 kts 64°
2026-05-07 18:09 -36.20094 -63.44289 26807 ft 345 kts 64°
2026-05-07 18:10 -36.18891 -63.41720 26817 ft 344 kts 62°
2026-05-07 18:10 -36.17693 -63.39162 26818 ft 343 kts 62°
2026-05-07 18:10 -36.16503 -63.36604 26813 ft 342 kts 62°
2026-05-07 18:10 -36.15312 -63.34059 26813 ft 342 kts 62°
2026-05-07 18:11 -36.14119 -63.31519 26811 ft 341 kts 62°
2026-05-07 18:11 -36.13331 -63.29840 26811 ft 341 kts 62°
2026-05-07 18:11 -36.11740 -63.26446 26811 ft 341 kts 62°
2026-05-07 18:11 -36.10551 -63.23913 26808 ft 340 kts 62°
2026-05-07 18:12 -36.09361 -63.21383 26809 ft 340 kts 62°
2026-05-07 18:12 -36.08172 -63.18855 26809 ft 340 kts 62°
2026-05-07 18:12 -36.06983 -63.16329 26808 ft 340 kts 62°
2026-05-07 18:12 -36.05792 -63.13800 26808 ft 340 kts 62°
2026-05-07 18:13 -36.04602 -63.11273 26796 ft 340 kts 60°
2026-05-07 18:13 -36.03412 -63.08754 26806 ft 339 kts 60°
2026-05-07 18:13 -36.02225 -63.06240 26806 ft 339 kts 60°
2026-05-07 18:13 -36.01037 -63.03725 26806 ft 338 kts 60°
2026-05-07 18:14 -35.99851 -63.01214 26800 ft 338 kts 60°
2026-05-07 18:14 -35.98664 -62.98707 26804 ft 338 kts 60°
2026-05-07 18:14 -35.97480 -62.96206 26796 ft 338 kts 60°
2026-05-07 18:14 -35.96294 -62.93704 26794 ft 337 kts 60°
2026-05-07 18:15 -35.95109 -62.91205 26799 ft 337 kts 60°
2026-05-07 18:15 -35.93923 -62.88705 26790 ft 337 kts 60°
2026-05-07 18:15 -35.92753 -62.86242 26799 ft 337 kts 60°
2026-05-07 18:15 -35.91551 -62.83714 26791 ft 337 kts 60°
2026-05-07 18:16 -35.90365 -62.81221 26798 ft 336 kts 57°
2026-05-07 18:16 -35.89185 -62.78744 26798 ft 334 kts 57°
2026-05-07 18:16 -35.88025 -62.76305 26797 ft 333 kts 56°
2026-05-07 18:16 -35.86856 -62.73849 26796 ft 332 kts 57°
2026-05-07 18:17 -35.85686 -62.71398 26783 ft 332 kts 57°
2026-05-07 18:17 -35.84514 -62.68948 26783 ft 332 kts 57°
2026-05-07 18:17 -35.83347 -62.66499 26782 ft 331 kts 58°
2026-05-07 18:17 -35.82179 -62.64053 26779 ft 331 kts 57°
2026-05-07 18:18 -35.81010 -62.61612 26778 ft 331 kts 58°
2026-05-07 18:18 -35.79841 -62.59172 26778 ft 330 kts 58°
2026-05-07 18:18 -35.78672 -62.56734 26778 ft 330 kts 57°
2026-05-07 18:18 -35.77505 -62.54297 26775 ft 331 kts 57°
2026-05-07 18:19 -35.76337 -62.51859 26771 ft 329 kts 55°
2026-05-07 18:19 -35.75182 -62.49450 26774 ft 325 kts 54°
2026-05-07 18:19 -35.74034 -62.47063 26775 ft 323 kts 54°
2026-05-07 18:19 -35.72894 -62.44697 26775 ft 321 kts 54°
2026-05-07 18:20 -35.71760 -62.42335 26774 ft 320 kts 54°
2026-05-07 18:20 -35.70633 -62.39993 26769 ft 319 kts 54°
2026-05-07 18:20 -35.69502 -62.37646 26765 ft 318 kts 54°
2026-05-07 18:20 -35.68376 -62.35311 26764 ft 317 kts 54°
2026-05-07 18:21 -35.67255 -62.32987 26764 ft 316 kts 54°
2026-05-07 18:21 -35.66187 -62.30776 26764 ft 315 kts 54°
2026-05-07 18:21 -35.65066 -62.28455 26763 ft 315 kts 54°
2026-05-07 18:21 -35.63949 -62.26142 26760 ft 315 kts 54°
2026-05-07 18:22 -35.62834 -62.23838 26761 ft 314 kts 54°
2026-05-07 18:22 -35.62096 -62.22311 26746 ft 314 kts 50°
2026-05-07 18:22 -35.60637 -62.19307 26764 ft 310 kts 49°
2026-05-07 18:22 -35.59568 -62.17095 26765 ft 308 kts 49°
2026-05-07 18:23 -35.58472 -62.14838 26757 ft 307 kts 49°
2026-05-07 18:23 -35.57383 -62.12586 26757 ft 306 kts 49°
2026-05-07 18:23 -35.56293 -62.10344 26756 ft 305 kts 49°
2026-05-07 18:23 -35.55206 -62.08109 26756 ft 305 kts 49°
2026-05-07 18:24 -35.54237 -62.06116 26757 ft 304 kts 49°
2026-05-07 18:24 -35.53154 -62.03890 26757 ft 304 kts 49°
2026-05-07 18:24 -35.52071 -62.01664 26757 ft 304 kts 49°
2026-05-07 18:24 -35.50987 -61.99439 26757 ft 303 kts 49°
2026-05-07 18:25 -35.49904 -61.97218 26758 ft 303 kts 49°
2026-05-07 18:25 -35.48823 -61.95002 26759 ft 303 kts 49°
2026-05-07 18:25 -35.47738 -61.92776 26761 ft 303 kts 49°
2026-05-07 18:25 -35.46666 -61.90563 26754 ft 301 kts 45°
2026-05-07 18:26 -35.45608 -61.88359 26753 ft 298 kts 46°
2026-05-07 18:26 -35.44560 -61.86175 26754 ft 296 kts 46°
2026-05-07 18:26 -35.43592 -61.83925 26758 ft 305 kts 54°
2026-05-07 18:26 -35.43000 -61.81360 26768 ft 322 kts 69°
2026-05-07 18:27 -35.42901 -61.78558 26770 ft 337 kts 83°
2026-05-07 18:27 -35.43215 -61.75677 26769 ft 343 kts 89°
2026-05-07 18:27 -35.43523 -61.72802 26768 ft 337 kts 83°
2026-05-07 18:27 -35.43581 -61.70919 26767 ft 331 kts 78°
2026-05-07 18:28 -35.43481 -61.67170 26757 ft 328 kts 76°
2026-05-07 18:28 -35.43393 -61.64374 26756 ft 328 kts 76°
2026-05-07 18:28 -35.43306 -61.61580 26756 ft 328 kts 76°
2026-05-07 18:28 -35.43219 -61.58783 26756 ft 328 kts 76°
2026-05-07 18:29 -35.43133 -61.55986 26752 ft 328 kts 76°
2026-05-07 18:29 -35.43048 -61.53194 26752 ft 328 kts 76°
2026-05-07 18:29 -35.42964 -61.50400 26752 ft 328 kts 76°
2026-05-07 18:29 -35.42881 -61.47605 26752 ft 328 kts 76°
2026-05-07 18:30 -35.42798 -61.44807 26743 ft 328 kts 76°
2026-05-07 18:30 -35.42716 -61.42011 26743 ft 328 kts 76°
2026-05-07 18:30 -35.42635 -61.39218 26743 ft 328 kts 76°
2026-05-07 18:30 -35.42554 -61.36425 26743 ft 328 kts 76°
2026-05-07 18:31 -35.42474 -61.33629 26741 ft 328 kts 76°
2026-05-07 18:31 -35.42398 -61.30845 26729 ft 326 kts 72°
2026-05-07 18:31 -35.42321 -61.28071 26729 ft 325 kts 72°
2026-05-07 18:31 -35.42240 -61.25299 26729 ft 325 kts 72°
2026-05-07 18:32 -35.42156 -61.22531 26731 ft 325 kts 72°
2026-05-07 18:32 -35.42072 -61.19755 26725 ft 325 kts 72°
2026-05-07 18:32 -35.41988 -61.16988 26725 ft 325 kts 72°
2026-05-07 18:32 -35.41906 -61.14218 26727 ft 325 kts 72°
2026-05-07 18:33 -35.41865 -61.11441 26725 ft 330 kts 76°
2026-05-07 18:33 -35.41874 -61.08646 26719 ft 324 kts 72°
2026-05-07 18:33 -35.41580 -61.05990 26712 ft 305 kts 58°
2026-05-07 18:33 -35.40859 -61.03631 26677 ft 289 kts 48°
2026-05-07 18:34 -35.40021 -61.01404 26686 ft 290 kts 50°
2026-05-07 18:34 -35.39333 -60.99035 26692 ft 301 kts 58°
2026-05-07 18:34 -35.38839 -60.96514 26693 ft 306 kts 61°
2026-05-07 18:34 -35.38348 -60.93992 26696 ft 302 kts 58°
2026-05-07 18:35 -35.37787 -60.91529 26700 ft 300 kts 57°
2026-05-07 18:35 -35.37216 -60.89072 26703 ft 300 kts 58°
2026-05-07 18:35 -35.36666 -60.86597 26700 ft 301 kts 58°
2026-05-07 18:35 -35.36122 -60.84120 26704 ft 301 kts 58°
2026-05-07 18:36 -35.35573 -60.81651 26702 ft 300 kts 58°
2026-05-07 18:36 -35.35021 -60.79186 26702 ft 300 kts 58°
2026-05-07 18:36 -35.34468 -60.76715 26708 ft 301 kts 58°
2026-05-07 18:36 -35.33917 -60.74249 26659 ft 299 kts 59°
2026-05-07 18:37 -35.33370 -60.71795 26665 ft 298 kts 58°
2026-05-07 18:37 -35.32824 -60.69357 26666 ft 297 kts 58°
2026-05-07 18:37 -35.32277 -60.66925 26666 ft 296 kts 58°
2026-05-07 18:37 -35.31731 -60.64500 26665 ft 295 kts 58°
2026-05-07 18:38 -35.31188 -60.62081 26651 ft 295 kts 58°
2026-05-07 18:38 -35.30643 -60.59659 26648 ft 295 kts 58°
2026-05-07 18:38 -35.30098 -60.57241 26638 ft 294 kts 58°
2026-05-07 18:38 -35.29553 -60.54823 26632 ft 294 kts 58°
2026-05-07 18:39 -35.29008 -60.52411 26627 ft 294 kts 58°
2026-05-07 18:39 -35.28463 -60.49997 26618 ft 294 kts 58°
2026-05-07 18:39 -35.27919 -60.47593 26617 ft 294 kts 58°
2026-05-07 18:39 -35.27371 -60.45174 26581 ft 294 kts 59°
2026-05-07 18:40 -35.26833 -60.42799 26577 ft 293 kts 59°
2026-05-07 18:40 -35.26288 -60.40394 26572 ft 293 kts 59°
2026-05-07 18:40 -35.25919 -60.38771 26561 ft 293 kts 59°
2026-05-07 18:40 -35.25196 -60.35590 26555 ft 293 kts 59°
2026-05-07 18:41 -35.24642 -60.33158 26550 ft 293 kts 59°
2026-05-07 18:41 -35.24104 -60.30789 26550 ft 293 kts 59°
2026-05-07 18:41 -35.23556 -60.28389 26540 ft 293 kts 59°
2026-05-07 18:41 -35.23009 -60.25994 26547 ft 293 kts 58°
2026-05-07 18:42 -35.22639 -60.24374 26548 ft 293 kts 58°
2026-05-07 18:42 -35.22091 -60.21976 26543 ft 293 kts 58°
2026-05-07 18:42 -35.21365 -60.18805 26537 ft 293 kts 58°
2026-05-07 18:42 -35.21003 -60.17223 26494 ft 293 kts 58°
2026-05-07 18:43 -35.20447 -60.14792 26494 ft 292 kts 58°
2026-05-07 18:43 -35.19897 -60.12402 26492 ft 292 kts 58°
2026-05-07 18:43 -35.19350 -60.10018 26490 ft 292 kts 58°
2026-05-07 18:43 -35.18799 -60.07631 26388 ft 294 kts 58°
2026-05-07 18:44 -35.18233 -60.05195 25983 ft 300 kts 59°
2026-05-07 18:44 -35.17671 -60.02736 25731 ft 301 kts 59°
2026-05-07 18:44 -35.17108 -60.00277 25482 ft 300 kts 59°
2026-05-07 18:44 -35.16541 -59.97821 25250 ft 300 kts 59°
2026-05-07 18:45 -35.15972 -59.95367 24948 ft 299 kts 59°
2026-05-07 18:45 -35.15406 -59.92922 24517 ft 300 kts 59°
2026-05-07 18:45 -35.14838 -59.90471 24132 ft 300 kts 60°
2026-05-07 18:45 -35.14270 -59.88017 23719 ft 300 kts 59°
2026-05-07 18:46 -35.13700 -59.85558 23187 ft 303 kts 59°
2026-05-07 18:46 -35.13118 -59.83072 22615 ft 304 kts 59°
2026-05-07 18:46 -35.12535 -59.80577 22044 ft 306 kts 60°
2026-05-07 18:46 -35.11954 -59.78066 21491 ft 308 kts 61°
2026-05-07 18:47 -35.11368 -59.75539 20941 ft 310 kts 62°
2026-05-07 18:47 -35.10774 -59.72999 20404 ft 312 kts 62°
2026-05-07 18:47 -35.10186 -59.70480 19890 ft 314 kts 63°
2026-05-07 18:47 -35.09575 -59.67870 19367 ft 316 kts 64°
2026-05-07 18:48 -35.08971 -59.65282 18870 ft 318 kts 64°
2026-05-07 18:48 -35.08362 -59.62682 18379 ft 319 kts 65°
2026-05-07 18:48 -35.07749 -59.60068 17877 ft 321 kts 66°
2026-05-07 18:48 -35.07136 -59.57471 17233 ft 324 kts 65°
2026-05-07 18:49 -35.06516 -59.54839 16739 ft 321 kts 66°
2026-05-07 18:49 -35.05912 -59.52232 16253 ft 318 kts 67°
2026-05-07 18:49 -35.05307 -59.49657 15782 ft 314 kts 68°
2026-05-07 18:49 -35.04702 -59.47113 15311 ft 310 kts 68°
2026-05-07 18:50 -35.04107 -59.44591 14849 ft 307 kts 69°
2026-05-07 18:50 -35.03520 -59.42101 14389 ft 304 kts 70°
2026-05-07 18:50 -35.02940 -59.39643 13936 ft 300 kts 70°
2026-05-07 18:50 -35.02361 -59.37204 13437 ft 299 kts 71°
2026-05-07 18:51 -35.01783 -59.34766 12874 ft 297 kts 71°
2026-05-07 18:51 -35.01211 -59.32352 12331 ft 295 kts 72°
2026-05-07 18:51 -35.00642 -59.29954 11771 ft 294 kts 70°
2026-05-07 18:51 -35.00074 -59.27562 11243 ft 292 kts 70°
2026-05-07 18:52 -34.99512 -59.25196 10760 ft 289 kts 70°
2026-05-07 18:52 -34.98959 -59.22870 10230 ft 288 kts 70°
2026-05-07 18:52 -34.98403 -59.20536 9711 ft 285 kts 69°
2026-05-07 18:52 -34.97848 -59.18215 9236 ft 284 kts 70°
2026-05-07 18:53 -34.97296 -59.15909 8749 ft 283 kts 70°
2026-05-07 18:53 -34.96743 -59.13595 8195 ft 285 kts 70°
2026-05-07 18:53 -34.96187 -59.11270 7695 ft 285 kts 70°
2026-05-07 18:53 -34.95631 -59.08946 7250 ft 284 kts 71°
2026-05-07 18:54 -34.95082 -59.06662 6758 ft 286 kts 72°
2026-05-07 18:54 -34.94518 -59.04313 6223 ft 289 kts 72°
2026-05-07 18:54 -34.93960 -59.01974 5790 ft 286 kts 72°
2026-05-07 18:54 -34.93404 -58.99649 5322 ft 286 kts 71°
2026-05-07 18:55 -34.92785 -58.97344 4948 ft 288 kts 70°
2026-05-07 18:55 -34.92281 -58.94972 4728 ft 288 kts 82°
2026-05-07 18:55 -34.91856 -58.92616 4466 ft 283 kts 70°
2026-05-07 18:55 -34.91159 -58.90363 3899 ft 286 kts 69°
2026-05-07 18:56 -34.90540 -58.88063 3396 ft 285 kts 75°
2026-05-07 18:56 -34.90044 -58.85734 3009 ft 280 kts 77°
2026-05-07 18:56 -34.89526 -58.83523 3007 ft 264 kts 75°
2026-05-07 18:56 -34.89000 -58.81443 2997 ft 252 kts 75°
2026-05-07 18:57 -34.88512 -58.79429 2993 ft 244 kts 76°
2026-05-07 18:57 -34.88042 -58.77467 2989 ft 239 kts 75°
2026-05-07 18:57 -34.87576 -58.75546 2993 ft 235 kts 75°
2026-05-07 18:57 -34.87115 -58.73651 2995 ft 232 kts 75°
2026-05-07 18:58 -34.86658 -58.71773 2997 ft 230 kts 76°
2026-05-07 18:58 -34.86205 -58.69909 2996 ft 229 kts 76°
2026-05-07 18:58 -34.85756 -58.68062 3001 ft 228 kts 76°
2026-05-07 18:58 -34.85306 -58.66210 2995 ft 228 kts 75°
2026-05-07 18:59 -34.84855 -58.64364 3005 ft 228 kts 75°
2026-05-07 18:59 -34.84686 -58.62479 3004 ft 222 kts 100°
2026-05-07 18:59 -34.84901 -58.60630 3004 ft 220 kts 105°
2026-05-07 18:59 -34.85176 -58.58797 3001 ft 221 kts 106°
2026-05-07 19:00 -34.85466 -58.56965 2997 ft 220 kts 106°
2026-05-07 19:00 -34.85747 -58.55142 3005 ft 218 kts 106°
2026-05-07 19:00 -34.86032 -58.53326 2761 ft 223 kts 107°
2026-05-07 19:00 -34.86344 -58.51382 2058 ft 241 kts 106°
2026-05-07 19:01 -34.86667 -58.49450 2019 ft 224 kts 106°
2026-05-07 19:01 -34.86966 -58.47649 2024 ft 211 kts 105°
2026-05-07 19:01 -34.87252 -58.45942 2012 ft 201 kts 106°
2026-05-07 19:01 -34.87519 -58.44295 2002 ft 195 kts 106°
2026-05-07 19:02 -34.87757 -58.42708 1998 ft 187 kts 106°
2026-05-07 19:02 -34.87947 -58.41162 1991 ft 183 kts 93°
2026-05-07 19:02 -34.87536 -58.39706 2033 ft 188 kts 47°
2026-05-07 19:02 -34.86450 -58.38950 2099 ft 176 kts 359°
2026-05-07 19:03 -34.85304 -58.39196 2100 ft 162 kts 320°
2026-05-07 19:03 -34.84675 -58.40135 2147 ft 133 kts 283°
2026-05-07 19:03 -34.84512 -58.41179 2016 ft 124 kts 270°
2026-05-07 19:03 -34.84314 -58.42158 1913 ft 115 kts 281°
2026-05-07 19:04 -34.84070 -58.43034 1864 ft 109 kts 276°
2026-05-07 19:04 -34.83912 -58.43936 1821 ft 106 kts 274°
2026-05-07 19:04 -34.83755 -58.44858 1618 ft 113 kts 274°
2026-05-07 19:04 -34.83607 -58.45821 1336 ft 117 kts 274°
2026-05-07 19:05 -34.83431 -58.46785 1147 ft 116 kts 277°
2026-05-07 19:05 -34.83267 -58.47723 903 ft 111 kts 276°
2026-05-07 19:05 -34.83093 -58.48634 643 ft 113 kts 281°
2026-05-07 19:05 -34.82923 -58.49561 514 ft 112 kts 279°
2026-05-07 19:06 -34.82779 -58.50493 330 ft 115 kts 282°
2026-05-07 19:06 -34.82452 -58.52290 90 ft 94 kts 280°
2026-05-07 19:06 -34.82333 -58.52955 79 ft 65 kts 280°
2026-05-07 19:07 -34.82278 -58.53270 77 ft 25 kts 282°
2026-05-07 19:07 -34.82243 -58.53469 78 ft 21 kts 283°
2026-05-07 19:07 -34.82213 -58.53636 77 ft 21 kts 282°
2026-05-07 19:07 -34.82180 -58.53804 74 ft 20 kts 282°
2026-05-07 19:08 -34.82140 -58.53899 77 ft 12 kts 350°
2026-05-07 19:08 -34.82062 -58.53825 68 ft 17 kts 46°
2026-05-07 19:08 -34.81975 -58.53727 69 ft 12 kts 50°
2026-05-07 19:08 -34.81929 -58.53663 72 ft 2 kts 43°
2026-05-07 19:09 -34.81923 -58.53656 72 ft 0 kts 43°
2026-05-07 19:10 -34.81906 -58.53637 72 ft 4 kts 44°
2026-05-07 19:10 -34.81897 -58.53626 72 ft 0 kts 41°
2026-05-07 19:10 -34.81895 -58.53625 72 ft 2 kts 38°
2026-05-07 19:10 -34.81870 -58.53635 67 ft 7 kts 310°
2026-05-07 19:11 -34.81800 -58.53690 71 ft 7 kts 333°
2026-05-07 19:11 -34.81762 -58.53712 68 ft 9 kts 337°
2026-05-07 19:11 -34.81703 -58.53745 71 ft 9 kts 333°
2026-05-07 19:11 -34.81652 -58.53773 71 ft 8 kts 359°
2026-05-07 19:12 -34.81603 -58.53736 71 ft 9 kts 41°
2026-05-07 19:12 -34.81568 -58.53697 69 ft 6 kts 43°
2026-05-07 19:12 -34.81528 -58.53661 71 ft 8 kts 32°
2026-05-07 19:12 -34.81481 -58.53632 71 ft 8 kts 21°
2026-05-07 19:13 -34.81430 -58.53611 65 ft 8 kts 15°
2026-05-07 19:13 -34.81388 -58.53596 72 ft 6 kts 13°
2026-05-07 19:13 -34.81345 -58.53589 65 ft 6 kts
2026-05-07 19:13 -34.81300 -58.53586 72 ft 7 kts
2026-05-07 19:14 -34.81260 -58.53588 64 ft 6 kts 357°
2026-05-07 19:14 -34.81221 -58.53591 72 ft 6 kts 358°
2026-05-07 19:14 -34.81178 -58.53583 70 ft 7 kts 11°
2026-05-07 19:14 -34.81133 -58.53556 72 ft 8 kts 26°
2026-05-07 19:15 -34.81084 -58.53558 72 ft 7 kts 341°
2026-05-07 19:15 -34.81045 -58.53573 72 ft 5 kts 345°
2026-05-07 19:15 -34.81012 -58.53583 69 ft 5 kts 343°
2026-05-07 19:15 -34.80978 -58.53596 72 ft 5 kts 343°
2026-05-07 19:16 -34.80939 -58.53610 72 ft 7 kts 348°
2026-05-07 19:16 -34.80892 -58.53626 69 ft 7 kts 342°
2026-05-07 19:16 -34.80841 -58.53644 65 ft 8 kts 345°
2026-05-07 19:16 -34.80783 -58.53663 72 ft 9 kts 342°
2026-05-07 19:17 -34.80719 -58.53685 72 ft 10 kts 342°
2026-05-07 19:17 -34.80653 -58.53710 71 ft 9 kts 342°
2026-05-07 19:18 -34.80612 -58.53724 69 ft 10 kts 347°
2026-05-07 19:18 -34.80549 -58.53738 71 ft 10 kts 355°
2026-05-07 19:18 -34.80479 -58.53736 69 ft 9 kts 11°
2026-05-07 19:19 -34.80414 -58.53707 71 ft 12 kts 28°
2026-05-07 19:19 -34.80359 -58.53664 71 ft 10 kts 37°
2026-05-07 19:19 -34.80299 -58.53600 68 ft 13 kts 46°
2026-05-07 19:19 -34.80233 -58.53517 69 ft 13 kts 46°
2026-05-07 19:20 -34.80170 -58.53439 67 ft 14 kts 45°
2026-05-07 19:20 -34.80095 -58.53346 70 ft 16 kts 45°
2026-05-07 19:20 -34.80022 -58.53258 71 ft 14 kts 45°
2026-05-07 19:20 -34.79950 -58.53170 66 ft 16 kts 45°
2026-05-07 19:21 -34.79878 -58.53081 66 ft 15 kts 46°
2026-05-07 19:21 -34.79813 -58.53000 68 ft 14 kts 47°
2026-05-07 19:21 -34.79772 -58.52952 68 ft 11 kts 45°
2026-05-07 19:21 -34.79725 -58.52874 71 ft 8 kts 97°
2026-05-07 19:22 -34.79760 -58.52823 71 ft 9 kts 135°
2026-05-07 19:22 -34.79789 -58.52787 66 ft 8 kts 135°
2026-05-07 19:22 -34.79828 -58.52739 71 ft 6 kts 134°
2026-05-07 19:22 -34.79864 -58.52696 67 ft 9 kts 134°
2026-05-07 19:23 -34.79904 -58.52648 71 ft 9 kts 133°
2026-05-07 19:23 -34.79933 -58.52612 69 ft 3 kts 137°
2026-05-07 19:23 -34.79940 -58.52598 68 ft 2 kts 65°
2026-05-07 19:23 -34.79918 -58.52576 69 ft 5 kts 47°
2026-05-07 19:24 -34.79911 -58.52567 70 ft 0 kts 43°
2026-05-07 19:25 -34.79911 -58.52568 71 ft 0 kts 43°
2026-05-07 19:27 -34.79912 -58.52568 71 ft 0 kts 43°
2026-05-07 19:31 -34.79912 -58.52569 71 ft 0 kts 43°
2026-05-07 19:34 -34.79913 -58.52569 71 ft 0 kts 43°